Regional Weather Roundup
Issued by NWS Northern Indiana

Home | Current Version | Previous Version | Text Only | Print | Product List | Glossary Off
Versions: 1 2 3 4 5 6 7 8 9 10 11 12 13 14 15 16 17 18 19 20 21 22 23 24 25 26 27 28 29 30 31 32 33 34 35 36 37 38 39 40 41 42 43 44 45 46 47 48 49 50

000
ASUS43 KIWX 260110
RWRIWX

KIWX WEATHER ROUNDUP
NATIONAL WEATHER SERVICE NORTHERN INDIANA
800 PM EST TUE NOV 25 2014

NOTE: "FAIR" INDICATES FEW OR NO CLOUDS BELOW 12,000 FEET WITH NO
SIGNIFICANT WEATHER AND/OR OBSTRUCTIONS TO VISIBILITY.

* THESE STATIONS ARE NOT UNDER NWS QUALITY CONTROL. THEY ALSO MAY NOT
  REPORT WEATHER SUCH AS PRECIPITATION OR FOG.

INZ001>027-260200-
NORTHERN INDIANA

CITY           SKY/WX    TMP DP  RH WIND       PRES   REMARKS
GARY*          CLOUDY    27  18  69 W6        30.20R WCI  20
VALPARAISO     CLOUDY    23  17  78 SW3       30.19R
MICHIGAN CITY* CLOUDY    27  18  69 S3        30.19S
LAPORTE*       CLOUDY    27  20  76 SW7       30.18S WCI  19
KNOX*          CLOUDY    25  19  78 SW3       30.18S
SOUTH BEND     CLOUDY    26  19  74 SW8       30.18R WCI  18
GOSHEN         CLOUDY    26  18  71 SW3       30.18R
MONTICELLO*    CLOUDY    25  20  79 CALM      30.19S
LOGANSPORT*    CLOUDY    27  19  74 CALM      30.21R
ROCHESTER*     CLOUDY    28  23  80 SW3       30.20R
WARSAW*        CLOUDY    27  19  74 CALM      30.19R
ANGOLA*        CLOUDY    27  19  74 CALM      30.17R
FORT WAYNE     CLOUDY    26  20  77 SW5       30.20R WCI  20
HUNTINGTON*    CLOUDY    26  20  80 NW3       30.20R
PERU/GRISSOM   CLOUDY    25  23  90 W3        30.19R
MARION*          N/A     26  22  83 NW6       30.20R WCI  20

$$
INZ028>050-260200-
CENTRAL INDIANA

CITY           SKY/WX    TMP DP  RH WIND       PRES   REMARKS
LAFAYETTE      CLOUDY    26  20  77 CALM      30.21R
KOKOMO*        CLOUDY    27  19  74 W3        30.20S
MUNCIE*        CLOUDY    29  23  78 W3        30.19R
INDIANAPOLIS   CLOUDY    28  21  75 NW7       30.19R WCI  21

$$
MIZ043>046-050>051-056>058-064>065-071>073-077>080-260200-
SOUTHWEST LOWER MICHIGAN

CITY           SKY/WX    TMP DP  RH WIND       PRES   REMARKS
BATTLE CREEK   CLOUDY    30  20  66 W6        30.15S WCI  24
BENTON HARBOR  CLOUDY    28  21  75 SW7       30.17R WCI  21
COLDWATER*     CLOUDY    29  22  75 W5        30.16R WCI  24
HILLSDALE*     CLOUDY    27  21  78 NW5       30.15R WCI  22
HOLLAND        CLOUDY    31  23  72 W3        30.15S
GRAND RAPIDS   CLOUDY    29  22  75 W9        30.14R WCI  20
KALAMAZOO      CLOUDY    28  21  75 SW6       30.16R WCI  22
STURGIS*       CLOUDY    27  19  74 CALM      30.16S
THREE RIVERS*  CLOUDY    29  21  73 SW3       30.17R

$$
OHZ001>008-015>018-024>025-260200-
NORTHWEST OHIO

CITY           SKY/WX    TMP DP  RH WIND       PRES   REMARKS
WAUSEON*       CLOUDY    28  21  74 NW7       30.18R WCI  21
FINDLAY        CLOUDY    30  21  69 W6        30.19R WCI  24
TOLEDO EXPRESS CLOUDY    28  20  71 W6        30.19R WCI  22
TOLEDO METCALF CLOUDY    30  20  66 W5        30.21R WCI  25
LIMA           CLOUDY    29  22  75 SW6       30.19R WCI  23

$$
AND FOR LAKE MICHIGAN COASTAL AND OPEN LAKE BUOY OBSERVATIONS

STATION/POSITION TEMP    WIND        PRES    VSBY  WAVE
                 AIR SEA DIR/SP/G                  HT/PER
                 (F)     (DEG/KT/KT) (MB)    (MI)  (FT/S)
CALUMET HARBOR    23     240/  5/  6 1020.9S
MICHIGAN CITY     25     170/  7/  8   N/A
SAINT JOSEPH      30     210/  8/ 12 1021.3F
SOUTH LAKE BUOY   29 42  250/ 10/ 14 1022.0R         3/ 6

$$
&&



USA.gov is the U.S. government's official web portal to all federal, state and local government web resources and services.